Location: Newark
(51.2000°N, 58.6167°E)
Time: 14:50:22
(UTC+00:00)

N. Korean satellite - Visible Passes

Search period start: 27 September 2020 00:00
Search period end: 07 October 2020 00:00
Orbit: 455 x 503 km, 97.2° (Epoch: 26 September)

Date Brightness Start Highest point End Pass type
(mag) Time Alt. Az. Time Alt. Az. Time Alt. Az.
27 Sep 8.4 01:18:23 10° NNE 01:21:49 36° E 01:25:09 10° SSE visible
28 Sep 9.7 00:52:53 10° NE 00:55:37 20° E 00:58:18 10° SE visible
29 Sep 10.3 00:28:25 10° ENE 00:29:18 11° E 00:30:11 10° E visible
01 Oct 9.0 01:07:47 10° NE 01:10:58 28° E 01:14:04 10° SSE visible
02 Oct 9.9 00:42:29 10° NE 00:44:42 15° E 00:46:52 10° SE visible
04 Oct 8.1 01:22:48 10° NNE 01:26:14 40° E 01:29:35 10° S visible
05 Oct 9.4 00:57:11 10° NE 01:00:01 21° E 01:02:48 10° SE visible
06 Oct 10.1 00:32:22 10° ENE 00:33:42 12° E 00:35:01 10° ESE visible
